Location: Little Elm
(33.1626°N, 96.9375°W)
Time: 12:00:21
(UTC+00:00)

Envisat - Pass Details

Date: 21 May 2022
Orbit: 764 x 765 km, 98.2° (Epoch: 01 July)

Event Time Altitude Azimuth Distance (km) Brightness Sun altitude
Rises 09:40:03 0° 39° (NE) 3,233 7.8 -19.1°
Reaches altitude 10° 09:44:01 10° 70° (ENE) 2,300 6.5 -18.5°
Maximum altitude 09:45:53 12° 92° (E) 2,162 6.0 -18.2°
Drops below altitude 10° 09:47:46 10° 114° (ESE) 2,295 5.8 -17.9°
Sets 09:51:40 0° 145° (SE) 3,214 6.2 -17.2°
